| time (UTC) | temp C | wind direction | speed KPH | gust KPH | rain 1hr cm | rain 24hr cm | rain mn cm | humidity % | barometer mb |
| 20260508090359 | 20 | 120 | 14.5 | 0.0 | 0.00 | 0.00 | 0.00 | 69 | 1016.0 |
| 20260508084859 | 16 | 130 | 11.3 | 0.0 | 0.00 | 0.00 | 0.00 | 77 | 1017.0 |
| 20260508083359 | 16 | 130 | 11.3 | 0.0 | 0.00 | 0.00 | 0.00 | 77 | 1017.0 |
| 20260508081900 | 16 | 130 | 11.3 | 0.0 | 0.00 | 0.00 | 0.00 | 77 | 1017.0 |
| 20260508080359 | 16 | 130 | 11.3 | 0.0 | 0.00 | 0.00 | 0.00 | 77 | 1017.0 |
| 20260508074856 | 15 | 150 | 14.5 | 0.0 | 0.00 | 0.00 | 0.00 | 77 | 1017.0 |
| 20260508073400 | 15 | 150 | 14.5 | 0.0 | 0.00 | 0.00 | 0.00 | 77 | 1017.0 |
| 20260508071857 | 15 | 150 | 14.5 | 0.0 | 0.00 | 0.00 | 0.00 | 77 | 1017.0 |
| 20260508070400 | 15 | 150 | 14.5 | 0.0 | 0.00 | 0.00 | 0.00 | 77 | 1017.0 |
| 20260508064900 | 13 | 140 | 14.5 | 0.0 | 0.00 | 0.00 | 0.00 | 82 | 1016.0 |
| 20260508063400 | 13 | 140 | 14.5 | 0.0 | 0.00 | 0.00 | 0.00 | 82 | 1016.0 |
| 20260508061856 | 13 | 140 | 14.5 | 0.0 | 0.00 | 0.00 | 0.00 | 82 | 1016.0 |
| 20260508060400 | 13 | 140 | 14.5 | 0.0 | 0.00 | 0.00 | 0.00 | 82 | 1016.0 |
| 20260508054857 | 12 | 120 | 17.7 | 0.0 | 0.00 | 0.00 | 0.00 | 94 | 1016.0 |
| 20260508053359 | 12 | 120 | 17.7 | 0.0 | 0.00 | 0.00 | 0.00 | 94 | 1016.0 |
| 20260508051900 | 12 | 120 | 17.7 | 0.0 | 0.00 | 0.00 | 0.00 | 94 | 1016.0 |
| 20260508050400 | 12 | 120 | 17.7 | 0.0 | 0.00 | 0.00 | 0.00 | 94 | 1016.0 |
| 20260508044900 | 10 | 120 | 17.7 | 0.0 | 0.00 | 0.00 | 0.00 | 100 | 1016.0 |
| 20260508043400 | 10 | 120 | 17.7 | 0.0 | 0.00 | 0.00 | 0.00 | 100 | 1016.0 |
| 20260508041855 | 10 | 120 | 17.7 | 0.0 | 0.00 | 0.00 | 0.00 | 100 | 1016.0 |
| 20260508040401 | 10 | 120 | 17.7 | 0.0 | 0.00 | 0.00 | 0.00 | 100 | 1016.0 |
| 20260508034855 | 10 | 120 | 14.5 | 0.0 | 0.00 | 0.00 | 0.00 | 100 | 1016.0 |
| 20260508033400 | 10 | 120 | 14.5 | 0.0 | 0.00 | 0.00 | 0.00 | 100 | 1016.0 |
| 20260508031857 | 10 | 120 | 14.5 | 0.0 | 0.00 | 0.00 | 0.00 | 100 | 1016.0 |
| 20260508030401 | 10 | 120 | 14.5 | 0.0 | 0.00 | 0.00 | 0.00 | 100 | 1016.0 |
| 20260508024900 | -17 | 0.0 | 0.0 | 0.00 | 0.00 | 0.00 | |||
| 20260508023401 | -17 | 0.0 | 0.0 | 0.00 | 0.00 | 0.00 | |||
| 20260508021901 | -17 | 0.0 | 0.0 | 0.00 | 0.00 | 0.00 | |||
| 20260508020400 | -17 | 0.0 | 0.0 | 0.00 | 0.00 | 0.00 | |||
| 20260508014857 | -17 | 0.0 | 0.0 | 0.00 | 0.00 | 0.00 | |||
| 20260508013400 | -17 | 0.0 | 0.0 | 0.00 | 0.00 | 0.00 | |||
| 20260508011900 | -17 | 0.0 | 0.0 | 0.00 | 0.00 | 0.00 | |||
| 20260508010359 | -17 | 0.0 | 0.0 | 0.00 | 0.00 | 0.00 | |||
| 20260508004900 | -17 | 0.0 | 0.0 | 0.00 | 0.00 | 0.00 | |||
| 20260508003400 | -17 | 0.0 | 0.0 | 0.00 | 0.00 | 0.00 | |||
| 20260508001856 | -17 | 0.0 | 0.0 | 0.00 | 0.00 | 0.00 | |||
| 20260508000400 | -17 | 0.0 | 0.0 | 0.00 | 0.00 | 0.00 | |||
| 20260507234857 | -17 | 0.0 | 0.0 | 0.00 | 0.00 | 0.00 | |||
| 20260507233359 | -17 | 0.0 | 0.0 | 0.00 | 0.00 | 0.00 | |||
| 20260507231856 | -17 | 0.0 | 0.0 | 0.00 | 0.00 | 0.00 | |||
| 20260507230359 | -17 | 0.0 | 0.0 | 0.00 | 0.00 | 0.00 | |||
| 20260507224900 | -17 | 0.0 | 0.0 | 0.00 | 0.00 | 0.00 | |||
| 20260507223523 | -17 | 0.0 | 0.0 | 0.00 | 0.00 | 0.00 | |||
| 20260507221857 | -17 | 0.0 | 0.0 | 0.00 | 0.00 | 0.00 | |||
| 20260507220359 | -17 | 0.0 | 0.0 | 0.00 | 0.00 | 0.00 | |||
| 20260507214859 | 10 | 130 | 22.5 | 0.0 | 0.00 | 0.00 | 0.00 | 94 | 1017.0 |
| 20260507213401 | 10 | 130 | 22.5 | 0.0 | 0.00 | 0.00 | 0.00 | 94 | 1017.0 |
| 20260507211900 | 10 | 130 | 22.5 | 0.0 | 0.00 | 0.00 | 0.00 | 94 | 1017.0 |
| 20260507210400 | 10 | 130 | 22.5 | 0.0 | 0.00 | 0.00 | 0.00 | 94 | 1017.0 |
| 20260507204900 | 10 | 130 | 22.5 | 0.0 | 0.00 | 0.00 | 0.00 | 94 | 1017.0 |
| 20260507203400 | 11 | 130 | 22.5 | 0.0 | 0.00 | 0.00 | 0.00 | 94 | 1017.0 |
| 20260507201857 | 11 | 130 | 22.5 | 0.0 | 0.00 | 0.00 | 0.00 | 94 | 1017.0 |
| 20260507200400 | 11 | 130 | 22.5 | 0.0 | 0.00 | 0.00 | 0.00 | 94 | 1017.0 |
| 20260507194905 | 11 | 120 | 17.7 | 0.0 | 0.00 | 0.00 | 0.00 | 94 | 1017.0 |
| 20260507193359 | 11 | 120 | 17.7 | 0.0 | 0.00 | 0.00 | 0.00 | 94 | 1017.0 |
| 20260507191856 | 11 | 120 | 17.7 | 0.0 | 0.00 | 0.00 | 0.00 | 94 | 1017.0 |
| 20260507190401 | 11 | 120 | 17.7 | 0.0 | 0.00 | 0.00 | 0.00 | 94 | 1017.0 |
| 20260507184902 | 12 | 130 | 25.7 | 0.0 | 0.00 | 0.00 | 0.00 | 88 | 1016.0 |
| 20260507183359 | 12 | 130 | 25.7 | 0.0 | 0.00 | 0.00 | 0.00 | 88 | 1016.0 |
| 20260507181900 | 12 | 130 | 25.7 | 0.0 | 0.00 | 0.00 | 0.00 | 88 | 1016.0 |
| 20260507180359 | 12 | 130 | 25.7 | 0.0 | 0.00 | 0.00 | 0.00 | 88 | 1016.0 |
| 20260507174859 | 15 | 140 | 25.7 | 0.0 | 0.00 | 0.00 | 0.00 | 77 | 1015.0 |
| 20260507173400 | 15 | 140 | 25.7 | 0.0 | 0.00 | 0.00 | 0.00 | 77 | 1015.0 |
| 20260507171900 | 15 | 140 | 25.7 | 0.0 | 0.00 | 0.00 | 0.00 | 77 | 1015.0 |
| 20260507170359 | 15 | 140 | 25.7 | 0.0 | 0.00 | 0.00 | 0.00 | 77 | 1015.0 |
| 20260507164900 | 18 | 140 | 29.0 | 0.0 | 0.00 | 0.00 | 0.00 | 56 | 1015.0 |
| 20260507163400 | 18 | 140 | 29.0 | 0.0 | 0.00 | 0.00 | 0.00 | 56 | 1015.0 |
| 20260507161859 | 18 | 140 | 29.0 | 0.0 | 0.00 | 0.00 | 0.00 | 56 | 1015.0 |
| 20260507160359 | -17 | 0.0 | 0.0 | 0.00 | 0.00 | 0.00 | |||
| 20260507154900 | 21 | 140 | 29.0 | 0.0 | 0.00 | 0.00 | 0.00 | 50 | 1016.0 |
| 20260507153400 | 21 | 140 | 29.0 | 0.0 | 0.00 | 0.00 | 0.00 | 50 | 1016.0 |
| 20260507151900 | 21 | 140 | 29.0 | 0.0 | 0.00 | 0.00 | 0.00 | 50 | 1016.0 |
| 20260507150359 | 21 | 140 | 29.0 | 0.0 | 0.00 | 0.00 | 0.00 | 50 | 1016.0 |
| 20260507144859 | 21 | 140 | 29.0 | 0.0 | 0.00 | 0.00 | 0.00 | 50 | 1016.0 |
| 20260507143401 | 21 | 140 | 29.0 | 0.0 | 0.00 | 0.00 | 0.00 | 50 | 1016.0 |
| 20260507141900 | 21 | 140 | 29.0 | 0.0 | 0.00 | 0.00 | 0.00 | 50 | 1016.0 |
| 20260507140359 | 21 | 140 | 29.0 | 0.0 | 0.00 | 0.00 | 0.00 | 50 | 1016.0 |
| 20260507134900 | 22 | 150 | 25.7 | 0.0 | 0.00 | 0.00 | 0.00 | 50 | 1016.0 |
| 20260507133359 | 22 | 150 | 25.7 | 0.0 | 0.00 | 0.00 | 0.00 | 50 | 1016.0 |
| 20260507131856 | 22 | 150 | 25.7 | 0.0 | 0.00 | 0.00 | 0.00 | 50 | 1016.0 |
| 20260507130359 | 22 | 150 | 25.7 | 0.0 | 0.00 | 0.00 | 0.00 | 50 | 1016.0 |
| 20260507124856 | 22 | 140 | 25.7 | 0.0 | 0.00 | 0.00 | 0.00 | 50 | 1017.0 |
| 20260507123438 | 22 | 140 | 25.7 | 0.0 | 0.00 | 0.00 | 0.00 | 50 | 1017.0 |
| 20260507121859 | 22 | 140 | 25.7 | 0.0 | 0.00 | 0.00 | 0.00 | 50 | 1017.0 |
| 20260507120400 | 22 | 140 | 25.7 | 0.0 | 0.00 | 0.00 | 0.00 | 50 | 1017.0 |
| 20260507114900 | 22 | 140 | 25.7 | 0.0 | 0.00 | 0.00 | 0.00 | 50 | 1017.0 |
| 20260507113427 | -17 | 0.0 | 0.0 | 0.00 | 0.00 | 0.00 | |||
| 20260507111900 | 22 | 140 | 25.7 | 0.0 | 0.00 | 0.00 | 0.00 | 50 | 1017.0 |
| 20260507110359 | -17 | 0.0 | 0.0 | 0.00 | 0.00 | 0.00 | |||
| 20260507104859 | 21 | 140 | 25.7 | 0.0 | 0.00 | 0.00 | 0.00 | 50 | 1017.0 |
| 20260507103359 | 21 | 140 | 25.7 | 0.0 | 0.00 | 0.00 | 0.00 | 50 | 1017.0 |
| 20260507101859 | 21 | 140 | 25.7 | 0.0 | 0.00 | 0.00 | 0.00 | 50 | 1017.0 |
| 20260507100400 | 21 | 140 | 25.7 | 0.0 | 0.00 | 0.00 | 0.00 | 50 | 1017.0 |
| 20260507094900 | -17 | 0.0 | 0.0 | 0.00 | 0.00 | 0.00 | |||
| 20260507093400 | -17 | 0.0 | 0.0 | 0.00 | 0.00 | 0.00 | |||
| 20260507091901 | -17 | 0.0 | 0.0 | 0.00 | 0.00 | 0.00 |